Regional Weather Roundup
Issued by NWS Charleston, SC

Current Version | Previous Version | Graphics & Text | Print | Product List | Glossary On
Versions: 1 2 3 4 5 6 7 8 9 10 11 12 13 14 15 16 17 18 19 20 21 22 23 24 25 26 27 28 29 30 31 32 33 34 35 36 37 38 39 40 41 42 43 44 45 46 47 48 49 50
000
ASUS42 KCHS 221825
RWRCHS

REGIONAL WEATHER ROUNDUP
NATIONAL WEATHER SERVICE CHARLESTON SC
100 PM EST SAT NOV 22 2014

NOTE: "FAIR" INDICATES FEW OR NO CLOUDS BELOW 12,000 FEET WITH NO
SIGNIFICANT WEATHER AND/OR OBSTRUCTIONS TO VISIBILITY.

NOT ALL STATIONS ARE QUALITY CONTROLLED BY THE NATIONAL
WEATHER SERVICE. USE DATA WITH CAUTION...ESPECIALLY
DEWPOINT OBSERVATIONS.

SCZ027-030-031-034>040-042>050-221900-
...SOUTHEAST SOUTH CAROLINA...

CITY           SKY/WX    TMP DP  RH WIND       PRES   REMARKS
N CHARLESTON   SUNNY     64  46  52 E10       30.42F
6HR MIN TEMP:  35; 6HR MAX TEMP:  64;

WATERFRONT PRK   N/A     57 N/A N/A NE21        N/A
MOUNT PLEASANT FAIR      63  48  59 E7        30.41F
JOHNS ISLAND   CLEAR     63  50  63 NE9G18    30.41F
PINOPOLIS        N/A     55  45  67 N6        30.35F
MONCKS CORNER  FAIR      64  45  48 E3        30.41F
SUMMERVILLE    FAIR      64  41  42 E3        30.40F
BEAUFORT MCAS  SUNNY     64  47  53 E8        30.40F
6HR MIN TEMP:  42; 6HR MAX TEMP:  64;

BEAUFORT ARPT  FAIR      63  52  67 NE13      30.39F
HILTON HEAD IS MOSUNNY   63  52  67 NE9G18    30.40F
WALTERBORO     CLEAR     64  32  29 E6        30.40F
ALLENDALE      FAIR      64  28  25 SE8       30.39F

...SOUTHERN MIDLANDS AND PEE DEE...

CITY           SKY/WX    TMP DP  RH WIND       PRES   REMARKS
GEORGETOWN     NOT AVBL
KINGSTREE      NOT AVBL
ORANGEBURG     SUNNY     60  24  25 E9        30.43F
6HR MIN TEMP:  32; 6HR MAX TEMP:  60;

BARNWELL       FAIR      63  28  27 E6        30.42F
AIKEN          FAIR      61  27  27 E9        30.43F
MANNING        NOT AVBL
COLUMBIA       MOSUNNY   58  22  24 E6        30.44F
6HR MIN TEMP:  28; 6HR MAX TEMP:  58;

SUMTER         SUNNY     58  25  27 E8        30.43F
6HR MIN TEMP:  24; 6HR MAX TEMP:  58;

FLORENCE       SUNNY     58  26  29 CALM      30.46F
6HR MIN TEMP:  27; 6HR MAX TEMP:  58;

MYRTLE BEACH   SUNNY     57  43  58 E12       30.46F
N MYRTLE BEACH SUNNY     58  43  57 E8        30.46F
6HR MIN TEMP:  31; 6HR MAX TEMP:  58;


$$

GAZ063-065-086>088-099>101-113>116-118-119-134>141-150-221900-
...SOUTHEAST GEORGIA...

CITY           SKY/WX    TMP DP  RH WIND       PRES   REMARKS
SAVANNAH ARPT  MOSUNNY   67  47  48 NE13      30.39F
6HR MIN TEMP:  47; 6HR MAX TEMP:  68;

HUNTER AAF     MOSUNNY   66  51  57 NE14G20   30.36F
6HR MIN TEMP:  48; 6HR MAX TEMP:  66;

FORT STEWART   SUNNY     67  50  54 E17       30.35F
6HR MIN TEMP:  47; 6HR MAX TEMP:  67;

STATESBORO     NOT AVBL
SYLVANIA       CLEAR     67  43  40 E5        30.38F
CLAXTON        CLOUDY    68  48  49 E5G16     30.37F

...CSRA...CENTRAL AND FAR SOUTHEAST GEORGIA...

CITY           SKY/WX    TMP DP  RH WIND       PRES   REMARKS
THOMSON        SUNNY     61  32  33 NE5       30.43F
AUGUSTA-BUSH   SUNNY     63  21  20 VRB6      30.41F
6HR MIN TEMP:  31; 6HR MAX TEMP:  63;

AUGUSTA-DANIEL SUNNY     61  21  21 NE8       30.41F
SWAINSBORO     CLOUDY    66  37  34 E10       30.38F
VIDALIA        CLOUDY    63  46  55 E14       30.35F
HAZLEHURST     FAIR      67  50  53 E12G17    30.32F
ALMA           PTSUNNY   69  51  52 E12G22    30.32F
6HR MIN TEMP:  49; 6HR MAX TEMP:  69;

WAYCROSS       CLOUDY    71  57  61 E13       30.30F
JESUP          CLOUDY    70  55  60 E17G23    30.33F
BAXLEY         CLOUDY    70  52  52 E12       30.32F
BRUNSWICK        N/A     68  54  60 NE16G22   30.33F
SAINT SIMONS   CLOUDY    64  55  72 NE14      30.33F
6HR MIN TEMP:  59; 6HR MAX TEMP:  65;


$$

SCZ027-028-034-036>038-045-046-048>050-GAZ119-141-221900-
...LAKE AND SUPPLEMENTAL COASTAL OBSERVATIONS...

STATION/POSITION TIME  TEMP    WIND        PRES    WAVE   SWELL
                       AIR SEA DIR/SP/G            HT/PER HT/PER/DIR
                 (UTC) (F)     (DEG/KT/KT) (MB)    (FT/S) (FT/S/D)
UPR LAKE MARION  NOT AVBL
WINYAH BAY       1800   54      50/ 11     1031.0S
LAKE MURRAY      1700   53     120/  2/  4 1031.2F
ACE BASIN NERRS  1800   64      60/  5     1030.0S
FORT PULASKI     1800   57      50/ 18/ 25 1028.9F
SAPELO ISLAND    NOT AVBL

$$

ANZ835-935-AMZ111-154-330-350-352-354-370-450-454-472-221900-
...C-MAN AND BUOY OBSERVATIONS...

STATION/POSITION TIME  TEMP    WIND        PRES    WAVE   SWELL
                       AIR SEA DIR/SP/G            HT/PER HT/PER/DIR
                 (UTC) (F)     (DEG/KT/KT) (MB)    (FT/S) (FT/S/D)
FOLLY BEACH CMAN 1800   56      50/ 20/ 22 1030.1F
BUOY 41004       1800   63 75   40/ 16/ 19 1029.4F   4/ 8   2/ 8
BUOY 41008       1800   66 64   60/ 17/ 21 1027.3F   7/ 7
CAPERS NEARSHORE 1700   56      70/ 16/ 19   N/A
FRIPP NEARSHORE  NOT AVBL


STATION/POSITION TIME  TEMP    WIND        PRES    WAVE   SWELL
                       AIR SEA DIR/SP/G            HT/PER HT/PER/DIR
                 (UTC) (F)     (DEG/KT/KT) (MB)    (FT/S) (FT/S/D)
5E ST. MARYS GA  1800      62                N/A     7/ 7
FRYING PAN BUOY  1800   58 62   40/ 14/ 16 1031.4F   4/ 9   2/100/ 9
BUOY 41025       1800   56      20/  6/ 10 1032.1F   3/ 8   3/ 50/ 8
CAPE LOOKOUT NC  1800   51      40/ 10/ 11 1031.8F
BUOY 41002       1652   64 73   70/ 12/ 16 1030.8F   5/ 9   3/ 30/ 9
BUOY 41010       1800   73 78   70/ 23/ 27 1025.2F   9/ 7   3/110/ 9
ST AUGUSTINE FL  1800   68     110/ 15/ 17 1025.3F


$$


USA.gov is the U.S. government's official web portal to all federal, state and local government web resources and services.